User: anonymous   Login
Location: Unspecified
(0.0000°N, 0.0000°E)
Time: 10:32:33
(UTC+02:00)
Language:

Meteor PRIRODA - Orbit

View from above orbital plane
View from above orbital plane
View from above satellite
View from above satellite

Ground track
Ground track

The orbit data is extracted from the following two-line orbital elements,

1 12585U 81065A   16271.97455178  .00001679  00000-0  81540-4 0  9999
2 12585  97.3998 249.6938 0013524 233.0068 126.9930 15.19751968922438
Epoch (UTC): 27 September 2016 23:23:21
Eccentricity: 0.0013524
inclination: 97.3998°
perigee height: 497 km
apogee height: 516 km
right ascension of ascending node: 249.6938°
argument of perigee: 233.0068°
revolutions per day: 15.19751968
mean anomaly at epoch: 126.9930°
orbit number at epoch: 92243

The dashed part of the orbit path shows where the satellite is in the earth's shadow,  

DLR